World > North America > United States > Kansas

Allen, Kansas Regional Weather

Lat: 38.66N, Lon: 96.17W
Wx Zone: KSZ054Web Search
Allen Weather Warning NWS WEATHER ALERT FOR THE ALLEN, KS AREA - Issued: 1255 AM CDT Sun May 9 2021 Allen Weather Warning  

Ads allow us to feed your daily addiction for the world's greatest weather information. We're determined to offer quality sponsors, in the least annoying way possible.

Feedback


°F Click to change Allen hourly weather to Imperial units.Click to change Allen hourly weather to Metric units. °C
Allen Weather Map
UTC Time: 5/9/2021, 08:12
Your Time:

Allen, KS Regional Weather

Expires:202105090900;;828562
ASUS43 KEAX 090810
RWREAX

WEATHER ROUNDUP FOR EASTERN KANSAS AND NORTHWEST MISSOURI
NATIONAL WEATHER SERVICE KANSAS CITY/PLEASANT HILL MO
300 AM CDT SUN MAY 09 2021


IAZ060-094-KSZ022-034>040-054-083-096-NEZ052-066-093-090900- 
...KANSAS...SOUTHEAST NEBRASKA AND IOWA...
  
CITY           SKY/WX    TMP DP  RH WIND       PRES   REMARKS
TOPEKA         RAIN      50  46  86 E7G22     29.66R                  
MANHATTAN      CLOUDY    49  45  86 N9G23     29.73R                  
EMPORIA        TSTM      56  55  97 VRB6      29.61R                  
OTTAWA         TSTM      54  54 100 N9G17     29.65R                  
CHANUTE        MOCLDY    75  66  73 S16G25    29.52S                  
SALINA         CLOUDY    48  45  89 N21G45    29.70R                  
WICHITA        CLOUDY    55  48  77 NW29G41   29.65R                  
OMAHA          CLOUDY    43  40  89 NE15G22   29.84R                  
LINCOLN        CLOUDY    45  41  86 N17       29.84R                  
FALLS CITY     CLOUDY    46  43  89 E15G25    29.66F                  
LAMONI         RAIN      44  42  93 NE16G26   29.72R FOG              
DES MOINES     LGT RAIN  42  39  89 NE21G31   29.80F WCI  33          

$$

  

SKY/WX - Weather  TMP - Temperature  DP - Dew Point  RH - Relative Humidity
WIND - Wind Direction/Speed PRES - Barometric Pressure VSB - Visibility
WCI - Wind Chill Index E13G22 Wind - East Wind 13 mph/Gusts of 22 mph